Погода в Лилонгве

Малави     13°57′24″S   33°44′59″E
темп.,
°C
ветер,
м/с
пор.,
м/с
влажн.,
%
обл.,
%
осадки,
мм/ч
давл.,
гПа
погр.,
м
10 августа, ср
ср1023:00+18юв12450 0.0 1019126
02:00+17юв12470 0.0 101876
05:00+16ююв11510 0.0 101859
08:00+19в23440 0.0 1020315
11:00+25всв45280 0.0 10182061
14:00+27св44220 0.0 10142479
17:00+25св55230 0.0 1015995
20:00+21всв28310 0.0 1017257
11 августа, чт
чт1123:00+19ю24370 0.0 1018130
02:00+17юв24430 0.0 1017109
05:00+16вюв23480 0.0 101893
08:00+18всв48560 0.0 1020544
11:00+24всв44370 0.0 10191718
14:00+27св44282 0.0 10152472
17:00+25всв553073 0.0 10151015
20:00+21всв39340 0.0 1017327
12 августа, пт
пт1223:00+19ю24445 0.0 1018152
02:00+17юв245077 0.0 1017123
05:00+16вюв24545 0.0 1018152
08:00+19всв59525 0.0 1019709
11:00+23всв5639100 0.0 10181605
14:00+26всв34295 0.0 10142381
17:00+25св443067 0.0 10131407
20:00+21всв2638100 0.0 1016226
13 августа, сб
сб1323:00+19св134921 0.0 1016147
02:00+17ююв115327 0.0 101575
05:00+17ююв11545 0.0 101660
08:00+20всв374515 0.0 1017491
11:00+25всв443212 0.0 10161800
14:00+27всв43255 0.0 10122441
17:00+25всв55295 0.0 10121244
20:00+21св383481 0.0 1014383
14 августа, вс
вс1423:00+19в1246100 0.0 1014118
02:00+18вюв0150100 0.0 101362
05:00+17в12555 0.0 101480
08:00+20всв2745100 0.0 1015408
11:00+26всв433092 0.0 10141479
14:00+29в332212 0.0 10102403
17:00+28св3323100 0.0 1009754
20:00+22всв394154 0.0 1012313